Regional Weather Roundup
Issued by NWS

Home | Current Version | Previous Version | Graphics & Text | Print | Product List | Glossary On
Versions: 1 2 3 4 5 6 7 8 9 10 11 12 13 14 15 16 17 18 19 20 21 22 23 24 25 26 27 28 29 30 31 32 33 34 35 36 37 38 39 40 41 42 43 44 45 46 47 48 49 50
000
ASUS43 KMKX 241123
RWRWI

WISCONSIN REGIONAL WEATHER ROUNDUP
NATIONAL WEATHER SERVICE MILWAUKEE/SULLIVAN WI
600 AM CDT SUN MAY 24 2015

NOTE: "FAIR" INDICATES FEW OR NO CLOUDS BELOW 12,000 FEET WITH NO
SIGNIFICANT WEATHER AND/OR OBSTRUCTIONS TO VISIBILITY.

WIZ001-002-006>008-014>016-023>028-241200-
NORTHWEST WISCONSIN

CITY           SKY/WX    TMP DP  RH WIND       PRES   REMARKS
SUPERIOR ARPT  MOCLDY    46  44  92 S3        30.13S
ASHLAND        CLOUDY    52  48  86 S3        30.14F
HAYWARD        LGT RAIN  54  50  86 N3        30.14F
SIREN          CLOUDY    55  53  93 E3        30.12F
CUMBERLAND     CLOUDY    55  46  71 NE3       30.12F
RICE LAKE      CLOUDY    55  50  82 CALM      30.13F
CHETEK         CLOUDY    57  49  75 CALM      30.12F
LADYSMITH      CLOUDY    58  45  62 E5        30.15F
EAU CLAIRE     NOT AVBL
MENOMONIE      CLOUDY    58  48  69 CALM      30.10F
NEW RICHMOND   CLOUDY    58  46  64 E5        30.09F
OSCEOLA        CLOUDY    57  50  79 E3        30.12F
$$

WIZ003>005-009-010-017-018-241200-
NORTH CENTRAL WISCONSIN

CITY           SKY/WX    TMP DP  RH WIND       PRES   REMARKS
MANITOWISH WTR CLOUDY    52  51  93 CALM      30.17F
ARBOR VITAE    CLOUDY    57  51  82 CALM      30.16F
WOODRUFF       CLOUDY    57  51  82 CALM      30.16F
RHINELANDER    CLOUDY    54  49  83 CALM      30.17F
EAGLE RIVER    CLOUDY    55  47  75 CALM      30.17F
LAND O LAKES   CLOUDY    53  47  81 CALM      30.19S
PHILLIPS       CLOUDY    54  49  82 CALM      30.15F
TOMAHAWK       CLOUDY    48  47  93 CALM      30.17F
MEDFORD        CLOUDY    51  46  84 NE3       30.15F
MERRILL        CLOUDY   N/A N/A N/A CALM      30.17F
$$

WIZ029-030-035-036-043>047-241200-
CENTRAL WISCONSIN

CITY           SKY/WX    TMP DP  RH WIND       PRES   REMARKS
WAUSAU         CLOUDY    53  48  83 CALM      30.14F
MOSINEE        CLEAR     55  45  67 E5        30.16F
MARSHFIELD     CLOUDY    56  46  69 E6        30.14F
STEVENS POINT  CLOUDY    50  47  88 CALM      30.15F
WAUPACA        MOCLDY    53  50  89 CALM      30.16F FOG
WAUTOMA        NOT AVBL
WISC RAPIDS    CLOUDY    56  45  66 CALM      30.14F
CAMP DOUGLAS   NOT AVBL
$$

WIZ011>013-019>022-031-037>040-048>050-241200-
NORTHEAST WISCONSIN

CITY           SKY/WX    TMP DP  RH WIND       PRES   REMARKS
ANTIGO         CLOUDY    51  48  88 N5        30.17F
SHAWANO        CLOUDY    55  48  77 CALM      30.16F
OCONTO         CLOUDY    56  47  73 CALM      30.16F
STURGEON BAY   CLOUDY    59  39  47 CALM      30.20F
GREEN BAY      MOCLDY    54  46  74 CALM      30.16F
MANITOWOC      NOT AVBL
APPLETON       MOCLDY    55  45  67 VRB5      30.16F
CLINTONVILLE   MOCLDY    52  48  87 CALM      30.15F
OSHKOSH        MOCLDY    54  45  71 S5        30.15F
$$

WIZ032>034-041-042-053>061-241200-
SOUTHWEST WISCONSIN

CITY           SKY/WX    TMP DP  RH WIND       PRES   REMARKS
LA CROSSE      MOCLDY    58  49  72 SE3       30.09F
SPARTA         MOCLDY    50  48  92 CALM      30.12F
VIROQUA        CLOUDY    59  46  63 SE7       30.12F
BOSCOBEL       CLOUDY    57  51  80 CALM      30.13F
PRAIRIE DU CHI CLOUDY    57  52  82 CALM      30.11F
PLATTEVILLE    CLOUDY    64  50  60 S16       30.14S
$$

WIZ056-057-062-063-064-067-068-241200-
SOUTH CENTRAL WISCONSIN

CITY           SKY/WX    TMP DP  RH WIND       PRES   REMARKS
REEDSBURG      MOCLDY    51  49  92 CALM      30.14S
BARABOO/DELLS  MOCLDY    51  45  79 CALM      30.14F
LONE ROCK      NOT AVBL
MINERAL POINT  CLOUDY    63  46  55 SE5       30.14F
MADISON        CLOUDY    56  48  74 CALM      30.15F
MIDDLETON      CLOUDY    55  48  79 CALM      30.16F
WATERTOWN      CLOUDY    54  48  78 CALM      30.16F
MONROE         CLOUDY    61  50  67 S5        30.15F
JANESVILLE     MOCLDY    61  48  63 CALM      30.15F
$$

WIZ051-052-058>065-066-070>072-241200-
SOUTHEAST WISCONSIN

CITY           SKY/WX    TMP DP  RH WIND       PRES   REMARKS
MILWAUKEE      CLOUDY    59  45  59 S3        30.18F
WAUKESHA       PTCLDY    54  45  71 SE6       30.19F
MILWAUKEE/TIMM CLOUDY    54  43  66 CALM      30.19S
RACINE         CLOUDY    57  49  74 CALM      30.20S
BURLINGTON     CLOUDY    50  47  88 CALM      30.18F
KENOSHA        CLOUDY    57  49  74 CALM      30.18F
FOND DU LAC    MOCLDY    56  44  64 S6        30.16F
SHEBOYGAN      MOCLDY    49  43  80 SW3       30.17F
WEST BEND      CLOUDY    50  45  81 CALM      30.18F
JUNEAU         CLOUDY    55  45  67 E6        30.18F
$$

LSZ147-162-241200-
LAKE SUPERIOR

STATION/POSITION TIME  TEMP    WIND        PRES    WAVE
                       AIR SEA DIR/SP/G            HT/PER
                 (UTC) (F)     (DEG/KT/KT) (MB)    (FT/S)
W MID LAKE BUOY  0950   41 36  220/ 10/ 12   N/A
DEVILS ISLAND    1000   58     230/ 10/ 12   N/A
PORT WING        1040   51     150/  3/  6   N/A
SAXON HARBOR     1000   52     190/  2/  3   N/A
$$

LMZ867-665-643>646-241200-
LAKE MICHIGAN

STATION/POSITION TIME  TEMP    WIND        PRES    WAVE
                       AIR SEA DIR/SP/G            HT/PER
                 (UTC) (F)     (DEG/KT/KT) (MB)    (FT/S)
CHAMBERS ISLAND  1000   61     180/  4/  7   N/A
N MID LAKE BUOY  0950   44 36  190/  6/  6   N/A     1/ 4
SISTER BAY       1017   63     200/ 11/ 13   N/A
KEWAUNEE LAKESHO 1000   54      CALM  /  2   N/A
SHEBOYGAN LAKESH 1000   50     170/  5/  6   N/A
ATWATER BUOY     1000   47 45   70/  2/  2   N/A
MILWAUKEE LAKESH 1000   50      50/  4/  5   N/A
S MID LAKE BUOY  0950   46 38  180/  8/ 10   N/A
KENOSHA   LAKESH 1000   57     170/  5/  7   N/A
$$

TC  - TEMPERATURE IN CELSIUS
VSB - VISIBILITY IN STATUTE MILES
WCI - WIND CHILL INDEX
HX  - HEAT INDEX




USA.gov is the U.S. government's official web portal to all federal, state and local government web resources and services.